Regional Weather Roundup
Issued by NWS Wilmington, NC

Current Version | Previous Version | Text Only | Print | Product List | Glossary On
Versions: 1 2 3 4 5 6 7 8 9 10 11 12 13 14 15 16 17 18 19 20 21 22 23 24 25 26 27 28 29 30 31 32 33 34 35 36 37 38 39 40 41 42 43 44 45 46 47 48 49 50
727
ASUS42 KILM 212113
RWRILM
RWRILM
REGIONAL HOURLY WEATHER ROUNDUP
NATIONAL WEATHER SERVICE WILMINGTON NC
500 PM EDT SAT APR 21 2018

NOTE: "FAIR" INDICATES FEW OR NO CLOUDS BELOW 12,000 FEET WITH NO
SIGNIFICANT WEATHER AND/OR OBSTRUCTIONS TO VISIBILITY.

...............WFO WILMINGTON COUNTY WARNING AREA...............

......COASTAL NC AND SC COUNTIES......

CITY           SKY/WX    TMP DP  RH WIND       PRES   REMARKS
WILMINGTON     FAIR      66  32  28 SE9       30.34F
N MYRTLE BEACH FAIR      64  47  53 E9G20     30.34F
MYRTLE BEACH   FAIR      64  48  56 E14       30.35F

......INLAND NC AND SC COUNTIES.......

CITY           SKY/WX    TMP DP  RH WIND       PRES   REMARKS
LUMBERTON      FAIR      70  36  28 MISG      30.31F
ELIZABETHTOWN  FAIR      70  31  24 MISG      30.32F
WHITEVILLE     FAIR      70  33  25 NE6       30.31F
FLORENCE       FAIR      72  33  24 SE9       30.31F
DARLINGTON     FAIR      71  35  26 E10       30.32F
KINGSTREE      FAIR      70  41  35 SE9       30.31S
HARTSVILLE     FAIR      72  32  23 SE8       30.30F
BENNETTSVILLE  FAIR      73  36  25 E7        30.31F
CONWAY         FAIR      68  43  40 SE7       30.33S
GEORGETOWN     FAIR      64  43  45 E13G18    30.35F
MARION         FAIR      70  36  28 S5        30.31F

....................REST OF NORTH CAROLINA......................

.........EASTERN NC.........

CITY           SKY/WX    TMP DP  RH WIND       PRES   REMARKS
CAPE HATTERAS  FAIR      59  38  45 VRB7      30.38F
JACKSONVILLE   FAIR      66  38  35 SE10      30.34S
MOREHEAD CITY  FAIR      61  37  41 E13       30.36F
KENANSVILLE    FAIR      68  34  28 CALM      30.33F
NEW BERN       FAIR      66  40  38 CALM      30.35F
ELIZABETH CITY FAIR      58  43  57 E10       30.39S

.........CENTRAL NC.........

CITY           SKY/WX    TMP DP  RH WIND       PRES   REMARKS
RALEIGH DURHAM FAIR      68  36  30 CALM      30.33F
ROCKY MOUNT    FAIR      66  32  28 NW6       30.34F
ROANOKE RAPIDS NOT AVBL
FAYETTEVILLE   FAIR      71  35  26 MISG      30.31F
HOFFMAN        FAIR      69  35  28 CALM      30.31F

.........WESTERN NC.........

CITY           SKY/WX    TMP DP  RH WIND       PRES   REMARKS
CHARLOTTE      FAIR      70  32  24 SW7       30.31F
GREENSBORO     FAIR      68  31  25 CALM      30.31F
HICKORY        NOT AVBL
BOONE          NOT AVBL
ASHEVILLE      NOT AVBL

.....................REST OF SOUTH CAROLINA.....................

.........EASTERN SC.........

CITY           SKY/WX    TMP DP  RH WIND       PRES   REMARKS
CHARLESTON     FAIR      68  50  52 E16       30.31F
BEAUFORT MCAS  PTSUNNY   70  54  56 E16G23    30.30F
HILTON HEAD    MOSUNNY   66  54  63 E13G22    30.30F

.........CENTRAL SC.........

CITY           SKY/WX    TMP DP  RH WIND       PRES   REMARKS
COLUMBIA       FAIR      73  33  23 VRB6      30.28F
ORANGEBURG     CLOUDY    71  45  39 VRB6      30.28F
SUMTER SHAW    FAIR      73  37  27 CALM      30.27F

.........WESTERN SC.........

CITY           SKY/WX    TMP DP  RH WIND       PRES   REMARKS
GREENVILLE     NOT AVBL
ROCK HILL      FAIR      70  34  26 VRB3      30.30F
ANDERSON       FAIR      70  34  26 S6        30.28F
CLEMSON        NOT AVBL
GREENWOOD      FAIR      70  36  28 S8        30.30F


...................COASTAL AND OFFSHORE REPORTS..................

................LOCAL PIERS AND NC RESERVE................


STATION/POSITION TIME  SKY/WX   TEMP    WIND        PRES    VSBY
                                AIR SEA DIR/SP/G
                 (UTC)          (F)     (DEG/KT/KT) (MB)    (MI)
JOHNY MRCER PIER 2042            60 63   90/ 12/ 13 1027.9F
NC RESRV MASNBRO NOT AVBL
OCEAN CREST PIER NOT AVBL
SPRINGMAID  PIER 2042                               1030.6F


................COASTAL AND OFFSHORE BUOYS................


STATION/POSITION TIME  SKY/WX   TEMP    WIND        PRES    VSBY
                                AIR SEA DIR/SP/G
                 (UTC)          (F)     (DEG/KT/KT) (MB)    (MI)
DIMNDSHOAL 41025 2100            56 72   30/ 10/ 14 1029.2
CAPE LOOKOUT     2100                    90/ 12/ 13 1028.8F
ONSLOW BAY 41036 NOT AVBL
ONSLOW BAY 41064 2008            60 66   80/ 10/ 14 1028.6F
ONSLOW BAY 41159 2100               66                N/A
WVE H/P(F/S)=  4/ 7

MASNBO INL 41110 2100               60                N/A
WVE H/P(F/S)=  3/ 8

WILM HARBR 41108 2100               61                N/A
WVE H/P(F/S)=  3/ 5

27SE WRITB 41037 2008            61 66   80/ 16/ 25 1027.9F
FRYING PAN 41013 2100            63 67   50/ 16/ 19 1027.6
SUNST NRSH 41024 2008            60 62  110/ 16/ 21 1027.5F
CAPRS NRSH 41029 2008            62 63   60/ 17/ 23 1027.0F
EDISTO     41004 2100            66      70/ 16/ 17 1026.1


..........OFFSHORE BUOYS BEYOND 100 NM OFFSHORE...........
.....IN A TRIANGLE---HAT TO BERMUDA TO BAHAMAS TO HAT.....


STATION/POSITION TIME  SKY/WX   TEMP    WIND        PRES    VSBY
                                AIR SEA DIR/SP/G
                 (UTC)          (F)     (DEG/KT/KT) (MB)    (MI)
150E HAT   41001 NOT AVBL
W BERMUDA  41048 2050               70   30/ 12/ 17 1025.9R
WVE H/P(F/S)=  5/ 8 SWL H/P/D(F/S/D)=  3/ 8

ATLANTIC S 41049 2050               77  210/  2/  4 1021.8R
WVE H/P(F/S)=  5/ 8 SWL H/P/D(F/S/D)=  5/230/ 8

E BAHAMAS  41046 2050               80   60/ 12/ 14 1019.4F
WVE H/P(F/S)=  5/ 8 SWL H/P/D(F/S/D)=  5/110/ 8

NE BAHAMAS 41047 2050                    70/ 17/ 21 1021.9R
WVE H/P(F/S)=  7/ 8 SWL H/P/D(F/S/D)=  2/ 40/14

120E CANVRL41010 2050            72 76   70/ 19/ 23 1022.2F
WVE H/P(F/S)=  9/ 8 SWL H/P/D(F/S/D)=  2/ 70/13


END




USA.gov is the U.S. government's official web portal to all federal, state and local government web resources and services.